Find Kosmos-650

NORAD ID: 7281 Int'l Des: 1974-028 Owner: VTS Country: SU operational
LEOCIRCULAR

Live Position

Loading 3D Globe...

About Kosmos-650

Description loading...

Upcoming Passes

Passes for default location (London). Set your location on the main map for personalized predictions.

Altitude History

Loading altitude history...

Two-Line Element Set

1 07281U 74028A 26105.63053427 -.00000010 00000-0 33204-4 0 9991
2 07281 74.0403 278.4701 0021034 164.9912 264.4677 12.69567248408232
Epoch: Apr 15, 2026 • Age: 6 hours

Current Status

Altitude 1397.9 km
Velocity 7.16 km/s
Sub-Earth Point 37.34°N, 136.97°E
Type other

Most Searched